User: anonymous   Login
Location: Bangkok
(13.7500°N, 100.5170°E)
Time: 18:11:11
(UTC+07:00)
Language:

Cosmos 1898 Rocket - Orbit

View from above orbital plane
View from above orbital plane
View from above satellite
View from above satellite

Ground track
Ground track

The orbit data is extracted from the following two-line orbital elements,

1 18586U 87098B   17349.95347271 +.00000069 +00000-0 +32236-4 0  9997
2 18586 074.0069 320.6240 0021657 330.9134 029.0810 14.36807390573160
Epoch (UTC): 15 December 2017 22:53:00
Eccentricity: 0.0021657
inclination: 74.0069°
perigee height: 753 km
apogee height: 784 km
right ascension of ascending node: 320.6240°
argument of perigee: 330.9134°
revolutions per day: 14.36807390
mean anomaly at epoch: 29.0810°
orbit number at epoch: 57316

The dashed part of the orbit path shows where the satellite is in the earth's shadow,  

DLR